Zurück zum Katalog

COSMOS 2251 DEB

AktivLEO
NORAD 34015·DEBRIS·🇷🇺 Russia

Gestartet Jun 16, 1993 von Plesetsk Cosmodrome

Loading…

Nächste Überflüge (nächste 24 Stunden)

TLE

AktuellSource: Space-Track

Epoche: Sep 14, 2026, 06:05 UTC

1 34015U 93036HA  26257.25392684  .00002698  00000-0  54165-3 0  9994
2 34015  74.0258 352.2746 0021076  16.2851  14.3019 14.62054404925553

Verfolge COSMOS 2251 DEB in Echtzeit mit AllMySat

Download on the App Store